Flag for Germany Weather past 2 weeks in Wismar, Mecklenburg-Western Pomerania, Germany

Now
50 °F

Low clouds.


Feels Like: 49 °F
Forecast: 45 / 54 °F
Wind: 3 mph from Northwest

Location: Schwerin

Current Time: Oct 23, 2014 at 8:19:22 AM

Latest Report: Oct 23, 2014 at 7:00 AM


Visibility: 4 mi

Pressure: 30.09 "Hg

Humidity: 94%

Dew point: 48 °F

Location of WismarLocation

Historic Weather in Wismar — Graph

°F

Wismar temperature yesterday

Maximum temperature yesterday: 55 °F (at 4:00 PM)
Minimum temperature yesterday: 48 °F (at 6:00 AM)
Average temperature yesterday: 51 °F

Past Weeks' High & Low Weather Summary

 TemperatureHumidityPressure
High71 °F (Oct 19, 4:00 PM)100% (Oct 14, 1:00 AM)30.18 "Hg (Oct 14, 1:00 AM)
Low47 °F (Oct 8, 8:00 AM)63% (Oct 8, 2:00 PM)29.38 "Hg (Oct 21, 8:00 PM)
Average56 °F89%29.82 "Hg
* Reported Oct 8 7:00 AM — Oct 23 7:00 AM, Wismar, Weather by CustomWeather, © 2014

Note: Actual official high and low records may vary slightly from our data, if they occured in-between our weather recording intervals... More about our weather records

Advertising

Wismar weather history for previous 24 hours

 ConditionsComfort  
Time TempWeatherWind HumidityBarometerVisibility
7:00 AM
Oct 23
50 °FLow clouds.3 mph94%30.09 "Hg4 mi
6:00 AM51 °FLow clouds.5 mph94%30.07 "Hg5 mi
5:00 AM51 °FLow clouds.5 mph94%30.05 "Hg6 mi
4:00 AM51 °FLow clouds.5 mph94%30.04 "Hg6 mi
3:00 AM52 °FLow clouds.5 mph95%30.03 "Hg7 mi
2:00 AM52 °FLow clouds.3 mph97%30.01 "HgN/A
1:00 AM52 °FDrizzle. Low clouds.5 mph97%30.00 "Hg4 mi
12:00 AM52 °FLight freezing rain. Low clouds.5 mph96%29.98 "Hg2 mi
10:00 PM
Oct 22
53 °FFog.2 mph97%29.95 "Hg3 mi
9:00 PM54 °FLow clouds.3 mph97%29.92 "Hg3 mi
8:00 PM54 °FLight rain. Low clouds.3 mph95%29.88 "Hg2 mi
7:00 PM54 °FFog.5 mph94%29.86 "Hg4 mi
6:00 PM54 °FLow clouds.5 mph93%29.82 "Hg8 mi
4:00 PM55 °FDrizzle. Overcast.3 mph87%29.76 "Hg8 mi
3:00 PM55 °FOvercast.6 mph84%29.73 "Hg13 mi
2:00 PM54 °FOvercast.6 mph84%29.70 "Hg16 mi
1:00 PM53 °FPartly sunny.5 mph89%29.67 "Hg10 mi
12:00 PM51 °FLow clouds.3 mph92%29.64 "Hg9 mi
10:00 AM49 °FLow clouds.5 mph94%29.59 "Hg9 mi
9:00 AM49 °FLow clouds.6 mph94%29.56 "Hg10 mi
8:00 AM49 °FLow clouds.6 mph96%29.54 "Hg7 mi
Weather by CustomWeather, © 2014

See weather overviewHow to use our weather pages